Preview of NWS' New Version of Forecast
This preview is not operational and should not be used for support decisions.

Regional Weather Roundup (RWR)

Issued by National Weather Service (NWS)

                            
000
ASUS42 KTBW 180116
RWRFL 
FLORIDA REGIONAL WEATHER ROUNDUP
NATIONAL WEATHER SERVICE TAMPA BAY RUSKIN FL
900 PM EDT FRI MAY 17 2019

NOTE: "FAIR" INDICATES FEW OR NO CLOUDS BELOW 12,000 FEET WITH NO
SIGNIFICANT WEATHER AND/OR OBSTRUCTIONS TO VISIBILITY.

FLZ001>010-012>015-112-114-115-180200-
PANHANDLE FLORIDA
  
CITY           SKY/WX    TMP DP  RH WIND       PRES   REMARKS
PENSACOLA      FAIR      75  69  81 CALM      29.97F                  
PENSACOLA NAS  FAIR      75  69  81 SE6       29.97F                  
MILTON NAS     FAIR      73  67  81 CALM      29.99R                  
CRESTVIEW      FAIR      77  63  61 CALM      30.00S                  
DUKE FIELD     FAIR      75  65  70 CALM      29.98S                  
VALPARAISO     FAIR      77  67  72 SW3       29.98R                  
PANAMA CITY    FAIR      77  67  71 S5        29.98S                  
APALACHICOLA   FAIR      76  70  82 S5        29.99R                  

STATION/POSITION SKY/WX   TEMP    WIND        PRES    WAVE   SWELL
                          AIR SEA DIR/SP/G            HT/PER HT/PER
                          (F)     (DEG/KT/KT) (MB)    (FT/S) (FT/S)
30.1N   87.6W                                   N/A     1/ 8
29.2N   88.2W                     120/ 12/ 14 1014.9F   3/ 4   2/ 9
PANAMA CITY BEAC           77 80  200/  3/  3 1016.1R
TOWER C          NOT AVBL

$$
FLZ011-016>038-118-127-128-134-139-239-180200-
NORTH FLORIDA
  
CITY           SKY/WX    TMP DP  RH WIND       PRES   REMARKS
MARIANNA       FAIR      81  65  58 SW6       29.98R                  
TALLAHASSEE    FAIR      77  71  82 CALM      29.98S                  
PERRY          FAIR      76  72  87 CALM      30.00S                  
LIVE OAK       PTCLDY    77  68  73 CALM      29.99S                  
CROSS CITY     FAIR      76  68  77 CALM      30.00R                  
GAINESVILLE    FAIR      81  65  58 NW8       30.02R                  
WILLISTON      FAIR      75  65  71 CALM      30.00S                  
PALATKA        FAIR     N/A N/A N/A SE7       30.01S                  
MAYPORT NAS      N/A    N/A N/A N/A MISG      30.00R                  
JACKSONVILLE   FAIR      76  59  55 SE8       29.99R                  
JAX NAS        FAIR      82  59  45 SE12      30.00R                  
JAX CECIL      CLEAR     79  61  53 SE8       30.00R                  
FERNANDINA BEA FAIR      77  65  67 S9        30.00R                  
ST AUGUSTINE   FAIR      76  66  71 S10       30.02R                  
PALM COAST     FAIR      73  63  69 SE5       30.02S                  

STATION/POSITION SKY/WX   TEMP    WIND        PRES    WAVE   SWELL
                          AIR SEA DIR/SP/G            HT/PER HT/PER
                          (F)     (DEG/KT/KT) (MB)    (FT/S) (FT/S)
SHELL POINT      NOT AVBL
KEATON BEACH               78     250/  6/  7 1015.8F
CEDAR KEY                  80     320/  4/  5 1015.6R
FERNANDINA                 80 79  150/  8/ 11 1016.5R
30.7N   81.3W                 78                N/A     3/ 4   2/17
MAYPORT                    78 79  170/  5/  8 1016.2R
31.4N   80.9W              77 76  180/ 16/ 19 1015.0R   3/ 4   2/13
ST AUGUSTINE               78 80  160/ 18/ 19 1016.4R

$$
FLZ040-043>046-052-053-057-058-063-144-180200-
INTERIOR CENTRAL FLORIDA
  
CITY           SKY/WX    TMP DP  RH WIND       PRES   REMARKS
OCALA          FAIR      80  61  52 SE6       30.00S                  
LEESBURG       FAIR      79  58  48 E13       30.02R                  
SANFORD        FAIR      75  61  61 SE9       30.02S                  
ORLANDO EXEC   FAIR      77  60  55 SE10      30.03R                  
ORLANDO INTL   FAIR      76  61  59 E9        30.03R                  
KISSIMMEE      FAIR      78  62  57 E10       30.04R                  
WINTER HAVEN   FAIR      80  58  46 E10       30.03R                  
LAKELAND       CLEAR     77  57  50 E8        30.01R                  
BARTOW         FAIR      77  57  50 E7        30.01R                  
SEBRING        FAIR      74  62  66 E7        30.02S                  
OKEECHOBEE     FAIR      72  61  68 E3        30.02S                  

$$
FLZ041-047-054-059-064-141-147-180200-
EAST CENTRAL FLORIDA
  
CITY           SKY/WX    TMP DP  RH WIND       PRES   REMARKS
DAYTONA BEACH  FAIR      75  66  73 SE3       30.02S                  
DELAND         FAIR      75  61  60 SE7       30.02S                  
NEW SMYRNA BEA CLEAR     75  64  69 SE9       30.04R                  
TITUSVILLE     CLEAR     77  63  61 SE6       30.04S                  
PATRICK AFB    FAIR      76  65  70 SE7       30.03R                  
MELBOURNE      FAIR      77  63  61 E8        30.03R                  
VERO BEACH     FAIR      74  63  68 E6        30.03R                  
FT PIERCE      FAIR      72  62  71 E5        30.03R                  
STUART         CLEAR     75  63  64 E6        30.03S                  

STATION/POSITION SKY/WX   TEMP    WIND        PRES    WAVE   SWELL
                          AIR SEA DIR/SP/G            HT/PER HT/PER
                          (F)     (DEG/KT/KT) (MB)    (FT/S) (FT/S)
28.5N   80.2W              77     130/  8/ 10 1017.5R   3/ 8   2/ 8
28.9N   78.5W              75 79  110/  4/  6 1018.0R   2/15   2/15
TRIDENT PIER               74 81   90/  3/  6 1018.5R
28.4N   80.5W                 79                N/A     2/14   2/14
27.5N   80.2W                 78                N/A     3/ 9   2/13

$$
FLZ050-056-061-142-242-148-248-149-249-151-251-155-255-
160-260-180200-
WEST CENTRAL FLORIDA
  
CITY           SKY/WX    TMP DP  RH WIND       PRES   REMARKS
CRYSTAL RIVER  FAIR      75  68  78 CALM      30.00S                  
INVERNESS      FAIR      77  68  73 CALM      30.01R                  
BROOKSVILLE    FAIR      78  64  61 CALM      30.01R                  
CLEARWATER AIR FAIR      79  63  57 N3        29.99R                  
ST PETE CLEARW FAIR      79  66  64 NW7       29.99R                  
TAMPA INTL     FAIR      84  55  36 E7        30.00R                  
TAMPA EXEC     FAIR      75  59  57 CALM      30.01R                  
PLANT CITY     FAIR      79  55  44 E5        30.03R                  
PETER O KNIGHT CLOUDY    82  59  44 E5        30.00R                  
ST PETERSBURG  FAIR      84  64  50 E10       29.97R                  
SARASOTA       FAIR      80  57  45 E6        29.97R                  
VENICE         FAIR      81  59  47 E6        29.99R                  

STATION/POSITION SKY/WX   TEMP    WIND        PRES    WAVE   SWELL
                          AIR SEA DIR/SP/G            HT/PER HT/PER
                          (F)     (DEG/KT/KT) (MB)    (FT/S) (FT/S)
27.3N   84.2W                 78                N/A     2/ 5
CLEARWATER BEACH           81 83  340/  8/ 10 1015.7R
MIDDLE TAMPA BAY           83     110/  7/  8 1015.5R
VENICE                     81 81   90/  5/  7 1015.3R

$$
FLZ066-069-070-075>078-162-262-165-265-180200-
SOUTHWEST FLORIDA AND KEYS
  
CITY           SKY/WX    TMP DP  RH WIND       PRES   REMARKS
PUNTA GORDA    FAIR      78  61  55 E12       30.00R                  
FT MYERS       FAIR      79  62  56 E9        29.98R                  
SOUTHWEST INTL FAIR      79  62  56 E9        29.99R                  
NAPLES         FAIR      80  64  58 E12       29.98R                  
MARCO ISLAND   FAIR      80  66  62 E6        30.00R                  
IMMOKALEE      FAIR      75  64  69 E8        29.98S                  
MARATHON       FAIR      81  72  74 E12G18    29.96S                  
KEY WEST NAS   FAIR      80  67  64 E13       29.97R                  
KEY WEST INTL  MOCLDY    78  69  73 E13       29.97R                  

STATION/POSITION SKY/WX   TEMP    WIND        PRES    WAVE   SWELL
                          AIR SEA DIR/SP/G            HT/PER HT/PER
                          (F)     (DEG/KT/KT) (MB)    (FT/S) (FT/S)
NAPLES                     82 83              1015.2R
DRY TORTUGAS               81      90/ 15/ 16 1014.4F
SAND KEY                   81                 1014.6R
SOMBRERO KEY               79                 1013.9F

$$
FLZ067-068-071>074-168-172>174-180200-
SOUTHEAST FLORIDA 
  
CITY           SKY/WX    TMP DP  RH WIND       PRES   REMARKS
W PALM BEACH   FAIR      78  63  59 E10       30.02R                  
BOCA RATON     PTCLDY    77  64  65 E9        30.01S                  
FT LAUDER-EXEC FAIR      78  65  63 E9        30.00S                  
FT LAUDERDALE  FAIR      77  64  64 E8        30.00S                  
POMPANO BEACH  FAIR      78  65  63 NE10      30.01R                  
PEMBROKE PINES FAIR      75  64  68 NE7       30.02R                  
OPA LOCKA      FAIR      77  64  64 E10       30.01S                  
MIAMI          FAIR      79  64  60 NE10      30.00S                  
WEST KENDALL   FAIR      78  65  63 E8        29.99F                  
HOMESTEAD      NOT AVBL                                               

STATION/POSITION SKY/WX   TEMP    WIND        PRES    WAVE   SWELL
                          AIR SEA DIR/SP/G            HT/PER HT/PER
                          (F)     (DEG/KT/KT) (MB)    (FT/S) (FT/S)
VIRGINIA KEY               79 83   40/  9/ 12 1015.2F
LAKE WORTH                 78 82              1017.5R
SETTLEMENT POINT           78      90/ 11/ 13 1016.7R

$$